User: anonymous   Login
Location: Irma
(52.9170°N, 111.2330°W)
Time: 00:30:57
(UTC-06:00)
Language:

Cosmos 1633 Rocket - Orbit

View from above orbital plane
View from above orbital plane
View from above satellite
View from above satellite

Ground track
Ground track

The orbit data is extracted from the following two-line orbital elements,

1 15593U 85020B   17232.44548056 +.00000086 +00000-0 +74021-5 0  9992
2 15593 082.5377 202.5213 0011533 179.8966 332.0279 14.84283583732735
Epoch (UTC): 20 August 2017 10:41:29
Eccentricity: 0.0011533
inclination: 82.5377°
perigee height: 608 km
apogee height: 624 km
right ascension of ascending node: 202.5213°
argument of perigee: 179.8966°
revolutions per day: 14.84283583
mean anomaly at epoch: 332.0279°
orbit number at epoch: 73273

The dashed part of the orbit path shows where the satellite is in the earth's shadow,  

DLR